Kezdőlap
METAR-TAF:

METAR-TAF

Repülőterek :

Washington Municipal Airport

Washington, Iowa, Amerikai Egyesült Államok

földrajzi szélesség: 41-17N, földrajzi hosszúság: 091-40W, magasság: 230 m

Jelenlegi meteorológiai megfigyelések

A jelentés 15 perccel ezelõtt készült, 16:35 UTC
Dél-délkeleti szél 9 kt
Hőmérséklet 3°C
Páratartalom 75%
Légköri nyomás 1023 hPa
Látótávolság: 16.1 km
Derült ég

METAR: KAWG 081635Z AUTO 15009KT 10SM CLR 03/M01 A3022 RMK AO2

Idő: 10:50 (16:50 UTC)


TAF: hiányzik

Meteorológiai megfigyelések és előrejelzések több, mint 4000 repülőtéren (METAR és TAF jelentéseket).

A térképen piros és sárga pontok jelzik az elérhető meteorológiai állomásokat.

Mozgassa az egeret a pont fölött, hogy megjelenjen az állomás neve.

Azután kattintson az időjárási megfigyelések és előrejelzések megtekintéséhez.

A térkép megváltoztatása: kattintson a fekete keresztel jelölt zöld gombra ráközelítéshez, a vonallal jelölt zöld gombra távolításhoz, vagy a zöld nyilakra a szomszédos térképek eléréséhez.


METAR-TAF: